Location: Soapstone Prairie Natural Area
(40.9437°N, 105.0829°W)
Time: 00:58:55
(UTC-06:00)

ISS - Visible Passes

Search period start: 30 April 2017 00:00
Search period end: 10 May 2017 00:00
Orbit: 401 x 409 km, 51.6° (Epoch: 01 May)

Date Brightness Start Highest point End Pass type
(mag) Time Alt. Az. Time Alt. Az. Time Alt. Az.
03 May -1.7 05:26:32 10° S 05:29:06 22° SE 05:31:41 10° E visible
04 May -1.1 04:36:06 10° SSE 04:37:14 11° SE 04:38:22 10° ESE visible
05 May -3.3 05:18:00 10° SW 05:21:12 54° SE 05:24:24 10° ENE visible
06 May -2.3 04:27:34 18° S 04:29:11 27° SE 04:32:01 10° ENE visible
07 May -1.4 03:37:31 14° SE 03:37:31 14° SE 03:39:08 10° E visible
07 May -3.6 05:10:11 10° WSW 05:13:23 62° NNW 05:16:38 10° NE visible
08 May -3.8 04:20:03 35° SW 04:21:14 70° SE 04:24:30 10° ENE visible
09 May -2.4 03:29:50 31° ESE 03:29:50 31° ESE 03:32:11 10° ENE visible
09 May -2.4 05:02:42 10° W 05:05:40 30° NNW 05:08:37 10° NE visible
